• In Kazakhstan
  • List of Countries
  • For 7 days
  • Water Temperature
  • Satellite Maps
  • Weather Map
  • News
  • Weather Widgets
  • user-avatar
    Login

    Hourly Weather Treskinskiy

    Today, 23 April, Tuesday

    Time Temperature Precipitation Wind Pressure Humidity
    00:00 +13°C° 0 mm 2 mps 759 mmHg 51%
    01:00 +13°C° 0 mm 2 mps 759 mmHg 53%
    02:00 +12°C° 0 mm 2 mps 759 mmHg 55%
    03:00 +12°C° 0 mm 2 mps 759 mmHg 57%
    04:00 +12°C° 0 mm 2 mps 759 mmHg 58%
    05:00 +12°C° 0 mm 2 mps 759 mmHg 59%
    06:00 +12°C° 0 mm 2 mps 760 mmHg 60%
    07:00 +13°C° 0 mm 2 mps 760 mmHg 52%
    08:00 +14°C° 0 mm 3 mps 760 mmHg 45%
    09:00 +16°C° 0 mm 3 mps 760 mmHg 37%
    10:00 +17°C° 0 mm 3 mps 759 mmHg 35%
    11:00 +18°C° 0 mm 4 mps 759 mmHg 34%
    12:00 +19°C° 0 mm 4 mps 759 mmHg 32%
    13:00 +19°C° 0 mm 4 mps 759 mmHg 32%
    14:00 +19°C° 0 mm 4 mps 759 mmHg 33%
    15:00 +20°C° 0 mm 5 mps 758 mmHg 33%
    16:00 +19°C° 0 mm 4 mps 758 mmHg 37%
    17:00 +18°C° 0 mm 4 mps 758 mmHg 40%
    18:00 +18°C° 0 mm 3 mps 758 mmHg 44%
    19:00 +17°C° 0 mm 3 mps 758 mmHg 45%
    20:00 +16°C° 0 mm 3 mps 758 mmHg 47%
    21:00 +14°C° 0 mm 3 mps 758 mmHg 49%
    22:00 +14°C° 0 mm 3 mps 758 mmHg 51%
    23:00 +14°C° 0 mm 3 mps 758 mmHg 54%

    Tomorrow, 24 April, Wednesday

    Time Temperature Precipitation Wind Pressure Humidity
    00:00 +13°C° 0 mm 3 mps 758 mmHg 56%
    01:00 +13°C° 0 mm 3 mps 758 mmHg 59%
    02:00 +12°C° 0 mm 3 mps 758 mmHg 61%
    03:00 +12°C° 0 mm 3 mps 758 mmHg 64%
    04:00 +11°C° 0 mm 3 mps 758 mmHg 68%
    05:00 +10°C° 0 mm 3 mps 758 mmHg 72%
    06:00 +10°C° 0 mm 3 mps 758 mmHg 76%
    07:00 +11°C° 0 mm 4 mps 758 mmHg 68%
    08:00 +13°C° 0 mm 4 mps 759 mmHg 60%
    09:00 +15°C° 0 mm 4 mps 759 mmHg 52%
    10:00 +17°C° 0 mm 4 mps 759 mmHg 48%
    11:00 +18°C° 0 mm 4 mps 759 mmHg 44%
    12:00 +19°C° 0 mm 4 mps 758 mmHg 41%
    13:00 +20°C° 0 mm 4 mps 758 mmHg 41%
    14:00 +21°C° 0 mm 4 mps 758 mmHg 41%
    15:00 +21°C° 0 mm 4 mps 758 mmHg 42%
    16:00 +21°C° 0 mm 4 mps 758 mmHg 44%
    17:00 +21°C° 0 mm 3 mps 758 mmHg 46%
    18:00 +20°C° 0 mm 3 mps 757 mmHg 49%
    19:00 +19°C° 0 mm 3 mps 758 mmHg 53%
    20:00 +17°C° 0 mm 3 mps 758 mmHg 56%
    21:00 +15°C° 0 mm 2 mps 758 mmHg 60%
    22:00 +14°C° 0 mm 3 mps 758 mmHg 62%
    23:00 +13°C° 0 mm 3 mps 758 mmHg 64%

    Day after tomorrow, 25 April, Thursday

    Time Temperature Precipitation Wind Pressure Humidity
    00:00 +13°C° 0 mm 3 mps 758 mmHg 66%
    01:00 +12°C° 0 mm 3 mps 758 mmHg 68%
    02:00 +12°C° 0 mm 3 mps 758 mmHg 70%
    03:00 +11°C° 0 mm 3 mps 758 mmHg 72%
    04:00 +11°C° 0 mm 3 mps 758 mmHg 73%
    05:00 +11°C° 0 mm 3 mps 758 mmHg 74%
    06:00 +11°C° 0 mm 3 mps 758 mmHg 75%
    07:00 +13°C° 0 mm 3 mps 758 mmHg 69%
    08:00 +16°C° 0 mm 3 mps 758 mmHg 62%
    09:00 +18°C° 0 mm 3 mps 759 mmHg 55%
    10:00 +20°C° 0 mm 4 mps 759 mmHg 50%
    11:00 +21°C° 0 mm 4 mps 758 mmHg 46%
    12:00 +22°C° 0 mm 4 mps 758 mmHg 41%
    13:00 +23°C° 0 mm 4 mps 758 mmHg 39%
    14:00 +23°C° 0 mm 4 mps 758 mmHg 38%
    15:00 +23°C° 0 mm 4 mps 758 mmHg 37%
    16:00 +24°C° 0 mm 3 mps 758 mmHg 40%
    17:00 +22°C° 0 mm 3 mps 758 mmHg 43%
    18:00 +23°C° 0 mm 2 mps 757 mmHg 45%
    19:00 +20°C° 0 mm 2 mps 757 mmHg 49%
    20:00 +18°C° 0 mm 2 mps 758 mmHg 53%
    21:00 +17°C° 0 mm 2 mps 758 mmHg 56%
    22:00 +16°C° 0 mm 2 mps 758 mmHg 58%
    23:00 +16°C° 0 mm 2 mps 758 mmHg 59%

    26 April, Friday

    Time Temperature Precipitation Wind Pressure Humidity
    00:00 +15°C° 0 mm 2 mps 757 mmHg 61%
    01:00 +14°C° 0 mm 2 mps 758 mmHg 63%
    02:00 +14°C° 0 mm 2 mps 758 mmHg 65%
    03:00 +12°C° 0 mm 3 mps 758 mmHg 67%
    04:00 +12°C° 0 mm 3 mps 758 mmHg 65%
    05:00 +12°C° 0 mm 3 mps 758 mmHg 62%
    06:00 +12°C° 0 mm 3 mps 758 mmHg 60%
    07:00 +13°C° 0 mm 3 mps 758 mmHg 54%
    08:00 +15°C° 0 mm 4 mps 758 mmHg 48%
    09:00 +18°C° 0 mm 4 mps 758 mmHg 41%
    10:00 +19°C° 0 mm 4 mps 758 mmHg 38%
    11:00 +21°C° 0 mm 4 mps 758 mmHg 35%
    12:00 +22°C° 0 mm 4 mps 758 mmHg 33%
    13:00 +22°C° 0 mm 4 mps 757 mmHg 32%
    14:00 +22°C° 0 mm 4 mps 757 mmHg 32%
    15:00 +22°C° 0 mm 4 mps 757 mmHg 31%
    16:00 +22°C° 0 mm 3 mps 757 mmHg 34%
    17:00 +21°C° 0 mm 3 mps 757 mmHg 37%
    18:00 +21°C° 0 mm 2 mps 757 mmHg 40%
    19:00 +19°C° 0 mm 2 mps 757 mmHg 42%
    20:00 +18°C° 0 mm 1 mps 757 mmHg 45%
    21:00 +16°C° 0 mm 1 mps 757 mmHg 48%
    22:00 +15°C° 0 mm 1 mps 757 mmHg 49%
    23:00 +15°C° 0 mm 1 mps 757 mmHg 50%

    27 April, Saturday

    Time Temperature Precipitation Wind Pressure Humidity
    00:00 +13°C° 0 mm 0 mps 757 mmHg 51%
    01:00 +13°C° 0 mm 0 mps 757 mmHg 53%
    02:00 +12°C° 0 mm 0 mps 757 mmHg 54%
    03:00 +13°C° 0 mm 1 mps 757 mmHg 56%
    04:00 +13°C° 0 mm 1 mps 757 mmHg 57%
    05:00 +13°C° 0 mm 1 mps 757 mmHg 58%
    06:00 +13°C° 0 mm 1 mps 757 mmHg 59%
    07:00 +15°C° 0 mm 2 mps 757 mmHg 53%
    08:00 +18°C° 0 mm 2 mps 756 mmHg 48%
    09:00 +20°C° 0 mm 3 mps 756 mmHg 42%
    10:00 +21°C° 0 mm 3 mps 756 mmHg 41%
    11:00 +22°C° 0 mm 4 mps 756 mmHg 40%
    12:00 +23°C° 0 mm 4 mps 755 mmHg 39%
    13:00 +23°C° 0 mm 4 mps 755 mmHg 40%
    14:00 +23°C° 0 mm 4 mps 754 mmHg 42%
    15:00 +23°C° 0 mm 4 mps 754 mmHg 43%
    16:00 +22°C° 0.6 mm 4 mps 754 mmHg 48%
    17:00 +21°C° 0.6 mm 4 mps 754 mmHg 53%
    18:00 +20°C° 0.6 mm 3 mps 754 mmHg 57%
    19:00 +19°C° 1.7 mm 2 mps 754 mmHg 62%
    20:00 +18°C° 1.7 mm 1 mps 754 mmHg 67%
    21:00 +15°C° 1.7 mm 0 mps 754 mmHg 72%
    22:00 +16°C° 0.1 mm 1 mps 754 mmHg 73%
    23:00 +15°C° 0.1 mm 1 mps 754 mmHg 74%

    28 April, Sunday

    Time Temperature Precipitation Wind Pressure Humidity
    00:00 +15°C° 0.1 mm 2 mps 754 mmHg 75%
    01:00 +14°C° 0 mm 2 mps 753 mmHg 77%
    02:00 +14°C° 0 mm 2 mps 753 mmHg 79%
    03:00 +13°C° 0 mm 2 mps 753 mmHg 81%
    04:00 +13°C° 0 mm 2 mps 753 mmHg 81%
    05:00 +14°C° 0 mm 2 mps 753 mmHg 81%
    06:00 +14°C° 0 mm 2 mps 753 mmHg 82%
    07:00 +15°C° 0 mm 2 mps 753 mmHg 75%
    08:00 +17°C° 0 mm 2 mps 753 mmHg 69%
    09:00 +19°C° 0 mm 3 mps 753 mmHg 62%
    10:00 +18°C° 0.2 mm 2 mps 753 mmHg 65%
    11:00 +18°C° 0.2 mm 2 mps 753 mmHg 68%
    12:00 +17°C° 0.2 mm 2 mps 753 mmHg 71%
    13:00 +18°C° 0.2 mm 2 mps 753 mmHg 68%
    14:00 +19°C° 0.2 mm 2 mps 753 mmHg 65%
    15:00 +19°C° 0.2 mm 3 mps 752 mmHg 61%
    16:00 +18°C° 0.4 mm 3 mps 752 mmHg 68%
    17:00 +17°C° 0.4 mm 3 mps 752 mmHg 74%
    18:00 +17°C° 0.4 mm 3 mps 752 mmHg 80%
    19:00 +16°C° 0 mm 3 mps 752 mmHg 82%
    20:00 +15°C° 0 mm 2 mps 752 mmHg 84%
    21:00 +14°C° 0 mm 2 mps 752 mmHg 86%
    22:00 +14°C° 0 mm 2 mps 752 mmHg 86%
    23:00 +14°C° 0 mm 2 mps 752 mmHg 87%
    Show more